This is the latest recevied weather packets stored in our database for station/object KJ4AJP. If no packets are shown the sender has not sent any weather packets the latest 10 day(s).
| Time | Temp. | Humidity | Pressure | Rain* | Wind** | Luminosity | Snow |
|---|---|---|---|---|---|---|---|
| 1777434275 | 17.78° C | 97% | 1009.6 hPa | 1.27 mm | - | 0 W/m² | - |
| 1777433972 | 17.78° C | 97% | 1010.5 hPa | 4.32 mm | - | 0 W/m² | - |
| 1777433669 | 17.78° C | 96% | 1011.3 hPa | 6.1 mm | - | 0 W/m² | - |
| 1777433365 | 17.78° C | 96% | 1012 hPa | 6.1 mm | - | 0 W/m² | - |
| 1777433061 | 17.78° C | 96% | 1012.2 hPa | 4.83 mm | - | 0 W/m² | - |
| 1777432756 | 17.78° C | 96% | 1012.7 hPa | 4.32 mm | - | 0 W/m² | - |
| 1777432453 | 18.33° C | 95% | 1013.1 hPa | 6.1 mm | - | 0 W/m² | - |
| 1777432148 | 18.33° C | 95% | 1013.3 hPa | 7.87 mm | - | 0 W/m² | - |
| 1777431842 | 18.33° C | 95% | 1013.5 hPa | 6.1 mm | - | 0 W/m² | - |
| 1777431539 | 18.33° C | 95% | 1013.5 hPa | 4.83 mm | - | 0 W/m² | - |
| 1777431236 | 18.33° C | 94% | 1013.6 hPa | 3.05 mm | - | 0 W/m² | - |
| 1777430936 | 18.33° C | 94% | 1013.3 hPa | 3.05 mm | - | 0 W/m² | - |
| 1777430633 | 18.33° C | 94% | 1012.9 hPa | 1.78 mm | - | 0 W/m² | - |
| 1777430329 | 18.33° C | 94% | 1013.1 hPa | 1.27 mm | - | 0 W/m² | - |
| 1777430029 | 18.89° C | 94% | 1013 hPa | 1.27 mm | - | 0 W/m² | - |
| 1777429726 | 18.89° C | 94% | 1013.4 hPa | 0 mm | - | 0 W/m² | - |
| 1777429422 | 18.89° C | 94% | 1013.3 hPa | 0 mm | - | 0 W/m² | - |
| 1777429118 | 18.89° C | 95% | 1012.9 hPa | 0 mm | - | 0 W/m² | - |
| 1777428815 | 18.89° C | 96% | 1012.6 hPa | 0 mm | - | 0 W/m² | - |
| 1777428510 | 18.33° C | 97% | 1012.3 hPa | 0 mm | - | 0 W/m² | - |
| 1777428206 | 18.89° C | 97% | 1012.1 hPa | 0 mm | - | 0 W/m² | - |
| 1777427902 | 18.89° C | 97% | 1012.5 hPa | 0 mm | - | 0 W/m² | - |
| 1777427598 | 18.89° C | 97% | 1012.7 hPa | 0 mm | - | 0 W/m² | - |
| 1777427295 | 18.89° C | 97% | 1012.5 hPa | 0 mm | - | 0 W/m² | - |
| 1777426993 | 18.89° C | 97% | 1012.5 hPa | 0 mm | - | 0 W/m² | - |
* Rain latest hour (hover to see other rain measurements)
** Current wind speed in m/s (hover to see current wind gust speed)